TimeCST,TemperatureF,Dew PointF,Humidity,Sea Level PressureIn,VisibilityMPH,Wind Direction,Wind SpeedMPH,Gust SpeedMPH,PrecipitationIn,Events,Conditions,WindDirDegrees,DateUTC
12:36 AM,51.8,44.6,76,29.87,7.0,East,13.8,20.7,N/A,,Light Drizzle,100,2012-11-10 06:36:00
12:56 AM,51.8,44.6,76,29.86,7.0,ESE,12.7,19.6,N/A,,Clear,110,2012-11-10 06:56:00
1:16 AM,51.8,44.6,76,29.86,7.0,ESE,13.8,-,N/A,,Clear,110,2012-11-10 07:16:00
1:36 AM,51.8,44.6,76,29.85,7.0,ESE,15.0,18.4,N/A,,Clear,110,2012-11-10 07:36:00
1:56 AM,51.8,44.6,76,29.85,7.0,East,13.8,19.6,N/A,,Clear,100,2012-11-10 07:56:00
2:17 AM,51.8,44.6,76,29.85,7.0,East,16.1,21.9,N/A,,Clear,100,2012-11-10 08:17:00
2:40 AM,51.8,44.6,76,29.84,7.0,East,15.0,21.9,N/A,,Clear,100,2012-11-10 08:40:00
2:57 AM,51.8,44.6,76,29.84,7.0,East,15.0,19.6,N/A,,Clear,100,2012-11-10 08:57:00
3:17 AM,50.0,44.6,82,29.83,5.0,East,15.0,-,N/A,,Haze,100,2012-11-10 09:17:00
3:38 AM,50.0,44.6,82,29.82,5.0,East,16.1,-,N/A,,Haze,100,2012-11-10 09:38:00
3:58 AM,50.0,46.4,87,29.81,5.0,ESE,13.8,19.6,N/A,,Clear,110,2012-11-10 09:58:00
4:15 AM,50.0,44.6,82,29.81,5.0,ESE,15.0,-,N/A,,Clear,110,2012-11-10 10:15:00
4:35 AM,50.0,46.4,87,29.80,5.0,ESE,17.3,21.9,N/A,,Clear,110,2012-11-10 10:35:00
4:55 AM,50.0,46.4,87,29.80,5.0,ESE,13.8,-,N/A,,Clear,120,2012-11-10 10:55:00
5:15 AM,50.0,46.4,87,29.79,5.0,ESE,13.8,-,N/A,,Clear,120,2012-11-10 11:15:00
5:35 AM,50.0,46.4,87,29.79,5.0,ESE,13.8,19.6,N/A,,Clear,120,2012-11-10 11:35:00
5:55 AM,50.0,48.2,94,29.79,5.0,ESE,11.5,-,N/A,,Clear,120,2012-11-10 11:55:00
6:15 AM,50.0,48.2,94,29.78,5.0,ESE,13.8,19.6,N/A,,Clear,120,2012-11-10 12:15:00
6:35 AM,51.8,50.0,94,29.78,5.0,SE,16.1,-,N/A,,Clear,130,2012-11-10 12:35:00
6:55 AM,51.8,50.0,94,29.78,5.0,SE,15.0,-,N/A,,Clear,130,2012-11-10 12:55:00
7:15 AM,51.8,50.0,94,29.78,5.0,SE,13.8,-,N/A,,Clear,130,2012-11-10 13:15:00
7:35 AM,53.6,51.8,94,29.77,7.0,SE,13.8,-,N/A,,Clear,130,2012-11-10 13:35:00
7:55 AM,53.6,51.8,94,29.77,10.0,SE,16.1,-,N/A,,Clear,130,2012-11-10 13:55:00
8:15 AM,55.4,51.8,88,29.77,10.0,SE,17.3,-,N/A,,Clear,130,2012-11-10 14:15:00
8:35 AM,55.4,51.8,88,29.76,10.0,SE,16.1,-,N/A,,Clear,140,2012-11-10 14:35:00
9:15 AM,59.0,53.6,82,29.75,10.0,SSE,17.3,21.9,N/A,,Clear,150,2012-11-10 15:15:00
9:35 AM,60.8,53.6,77,29.74,10.0,SSE,18.4,25.3,N/A,,Clear,150,2012-11-10 15:35:00
9:55 AM,62.6,53.6,72,29.74,10.0,SSE,18.4,26.5,N/A,,Clear,160,2012-11-10 15:55:00
10:15 AM,62.6,53.6,72,29.74,10.0,SSE,20.7,24.2,N/A,,Clear,160,2012-11-10 16:15:00
10:35 AM,64.4,53.6,68,29.74,10.0,South,19.6,24.2,N/A,,Clear,170,2012-11-10 16:35:00
10:55 AM,64.4,53.6,68,29.72,10.0,South,19.6,26.5,N/A,,Clear,170,2012-11-10 16:55:00
11:15 AM,68.0,53.6,60,29.72,10.0,SSE,17.3,23.0,N/A,,Clear,160,2012-11-10 17:15:00
11:35 AM,68.0,53.6,60,29.71,10.0,South,18.4,25.3,N/A,,Clear,170,2012-11-10 17:35:00
11:55 AM,68.0,53.6,60,29.69,10.0,South,19.6,24.2,N/A,,Clear,170,2012-11-10 17:55:00
12:15 PM,69.8,53.6,56,29.68,10.0,South,19.6,24.2,N/A,,Clear,170,2012-11-10 18:15:00
12:35 PM,71.6,53.6,53,29.67,10.0,South,23.0,-,N/A,,Clear,170,2012-11-10 18:35:00
12:55 PM,71.6,55.4,57,29.67,10.0,South,20.7,24.2,N/A,,Clear,170,2012-11-10 18:55:00
1:15 PM,73.4,55.4,53,29.67,10.0,South,23.0,27.6,N/A,,Clear,170,2012-11-10 19:15:00
1:35 PM,75.2,53.6,47,29.67,10.0,South,21.9,26.5,N/A,,Clear,180,2012-11-10 19:35:00
1:55 PM,73.4,53.6,50,29.67,10.0,South,20.7,27.6,N/A,,Clear,190,2012-11-10 19:55:00
2:15 PM,73.4,53.6,50,29.67,10.0,SSW,24.2,28.8,N/A,,Clear,200,2012-11-10 20:15:00
2:35 PM,73.4,53.6,50,29.68,10.0,South,20.7,27.6,N/A,,Clear,190,2012-11-10 20:35:00
2:55 PM,71.6,53.6,53,29.68,10.0,South,21.9,28.8,N/A,,Clear,190,2012-11-10 20:55:00
3:15 PM,71.6,53.6,53,29.67,10.0,South,16.1,-,N/A,,Clear,180,2012-11-10 21:15:00
3:35 PM,69.8,55.4,60,29.67,10.0,SSE,15.0,-,N/A,Rain,Light Rain,150,2012-11-10 21:35:00
3:55 PM,68.0,55.4,64,29.65,10.0,SE,13.8,-,N/A,,Clear,140,2012-11-10 21:55:00
4:15 PM,68.0,55.4,64,29.65,10.0,SSE,17.3,23.0,N/A,,Clear,150,2012-11-10 22:15:00
4:35 PM,68.0,55.4,64,29.65,10.0,SSE,15.0,21.9,N/A,,Clear,160,2012-11-10 22:35:00
4:55 PM,68.0,55.4,64,29.65,10.0,SSE,12.7,-,N/A,,Clear,150,2012-11-10 22:55:00
5:15 PM,66.2,55.4,68,29.66,10.0,SSE,18.4,24.2,N/A,,Clear,160,2012-11-10 23:15:00
5:55 PM,66.2,55.4,68,29.66,10.0,South,17.3,23.0,N/A,,Clear,170,2012-11-10 23:55:00
6:15 PM,66.2,55.4,68,29.67,10.0,SSE,18.4,27.6,N/A,,Clear,160,2012-11-11 00:15:00
6:35 PM,66.2,53.6,64,29.68,10.0,SSE,19.6,24.2,N/A,,Clear,160,2012-11-11 00:35:00
6:55 PM,64.4,53.6,68,29.67,10.0,South,16.1,26.5,N/A,,Clear,170,2012-11-11 00:55:00
7:15 PM,64.4,53.6,68,29.65,10.0,SSE,19.6,27.6,N/A,,Clear,160,2012-11-11 01:15:00
7:35 PM,64.4,53.6,68,29.65,10.0,South,18.4,25.3,N/A,,Clear,170,2012-11-11 01:35:00
7:55 PM,64.4,53.6,68,29.65,10.0,South,19.6,24.2,N/A,,Clear,170,2012-11-11 01:55:00
8:15 PM,64.4,51.8,64,29.63,10.0,South,19.6,24.2,N/A,,Clear,170,2012-11-11 02:15:00
8:35 PM,64.4,51.8,64,29.63,10.0,South,18.4,24.2,N/A,,Clear,170,2012-11-11 02:35:00
8:55 PM,62.6,50.0,63,29.64,10.0,South,18.4,-,N/A,,Clear,170,2012-11-11 02:55:00
9:15 PM,64.4,50.0,59,29.64,10.0,South,18.4,24.2,N/A,,Clear,170,2012-11-11 03:15:00
9:35 PM,62.6,50.0,63,29.64,10.0,South,21.9,25.3,N/A,,Clear,170,2012-11-11 03:35:00
9:55 PM,62.6,48.2,59,29.64,10.0,South,17.3,-,N/A,,Clear,170,2012-11-11 03:55:00
10:15 PM,62.6,46.4,55,29.64,10.0,South,19.6,25.3,N/A,,Clear,170,2012-11-11 04:15:00
10:35 PM,64.4,46.4,52,29.65,10.0,South,20.7,27.6,N/A,,Clear,180,2012-11-11 04:35:00
10:55 PM,64.4,46.4,52,29.66,10.0,South,20.7,32.2,N/A,,Clear,180,2012-11-11 04:55:00
11:15 PM,62.6,46.4,55,29.66,10.0,South,19.6,23.0,N/A,,Clear,180,2012-11-11 05:15:00
11:35 PM,62.6,46.4,55,29.68,10.0,South,19.6,25.3,N/A,,Clear,180,2012-11-11 05:35:00
11:55 PM,62.6,46.4,55,29.69,10.0,South,19.6,27.6,N/A,,Clear,180,2012-11-11 05:55:00